Montross, Virginia, United States (22520)
Lat: 38.09N, Lon: 76.83W
Wx Zone: VAZ075
Local Info
Past Weather Observations for Wednesday, October 29, 2014

NOTE: This archive is for the closest National Weather Service station to Montross. Information may differ from the station used for current weather conditions.

Click here for Long-term Archive

Time Weather Temperature Dewpoint Humidity Pressure Winds Precip Visibility
23:52
Overcast
52°F / 11°C 50°F / 10°C 94% 30.01 in
(1016 mb)
SSW 4.6 mph
(SSW 7 kph)
- 10SM
22:52
Overcast
54°F / 12°C 50°F / 10°C 88% 30.01 in
(1016 mb)
Calm - 10SM
21:52
Overcast
55°F / 13°C 50°F / 10°C 82% 30.01 in
(1016 mb)
Calm - 10SM
20:52
Overcast
55°F / 13°C 52°F / 11°C 88% 29.98 in
(1015 mb)
ENE 3.5 mph
(ENE 6 kph)
0.00 in
(0.00 mm)
10SM
19:52
Overcast
57°F / 14°C 52°F / 11°C 82% 29.98 in
(1015 mb)
NNW 4.6 mph
(NNW 7 kph)
0.00 in
(0.00 mm)
10SM
18:52
Overcast
Light Rain
57°F / 14°C 50°F / 10°C 77% 30.01 in
(1016 mb)
NNW 5.8 mph
(NNW 9 kph)
0.00 in
(0.00 mm)
10SM
17:52
Overcast
55°F / 13°C 50°F / 10°C 82% 29.98 in
(1015 mb)
N 5.8 mph
(N 9 kph)
0.00 in
(0.00 mm)
10SM
16:52
Overcast
Light Rain
55°F / 13°C 48°F / 9°C 77% 29.95 in
(1014 mb)
NNW 9.2 mph
(NNW 15 kph)
0.00 in
(0.00 mm)
10SM
15:52
Overcast
57°F / 14°C 48°F / 9°C 72% 29.95 in
(1014 mb)
NNW 11.5 mph
(NNW 19 kph)
0.00 in
(0.00 mm)
10SM
14:52
Mostly Cloudy
Light Rain
63°F / 17°C 45°F / 7°C 52% 29.92 in
(1013 mb)
N 15 mph
(N 24 kph)
0.00 in
(0.00 mm)
10SM
13:52
Mostly Cloudy
66°F / 19°C 48°F / 9°C 52% 29.92 in
(1013 mb)
NNW 17.3 mph
(NNW 28 kph)
- 10SM
12:52
Mostly Cloudy
66°F / 19°C 55°F / 13°C 68% 29.92 in
(1013 mb)
NNE 15 mph
(NNE 24 kph)
- 10SM
11:52
Overcast
72°F / 22°C 57°F / 14°C 61% 29.92 in
(1013 mb)
NNW 9.2 mph
(NNW 15 kph)
- 8SM
10:52
Mostly Cloudy
72°F / 22°C 57°F / 14°C 61% 29.92 in
(1013 mb)
SSW 6.9 mph
(SSW 11 kph)
- 8SM
09:52
Overcast
70°F / 21°C 57°F / 14°C 64% 29.95 in
(1014 mb)
SSW 11.5 mph
(SSW 19 kph)
- 10SM
08:52
Overcast
68°F / 20°C 57°F / 14°C 69% 29.95 in
(1014 mb)
W 9.2 mph
(W 15 kph)
- 10SM
07:52
Overcast
66°F / 19°C 57°F / 14°C 73% 29.95 in
(1014 mb)
SW 11.5 mph
(SW 19 kph)
- 9SM
06:52
Overcast
64°F / 18°C 57°F / 14°C 78% 29.92 in
(1013 mb)
SSE 6.9 mph
(SSE 11 kph)
- 10SM
05:52
Mostly Cloudy
64°F / 18°C 57°F / 14°C 78% 29.92 in
(1013 mb)
SSE 6.9 mph
(SSE 11 kph)
- 10SM
04:52
Overcast
66°F / 19°C 57°F / 14°C 73% 29.95 in
(1014 mb)
SW 6.9 mph
(SW 11 kph)
- 10SM
03:52
Clear
66°F / 19°C 57°F / 14°C 73% 29.92 in
(1013 mb)
SSE 9.2 mph
(SSE 15 kph)
- 10SM
02:52
Clear
66°F / 19°C 57°F / 14°C 73% 29.95 in
(1014 mb)
SSE 9.2 mph
(SSE 15 kph)
- 10SM
01:52
Clear
68°F / 20°C 57°F / 14°C 69% 29.95 in
(1014 mb)
SSE 8.1 mph
(SSE 13 kph)
- 10SM
00:52
Clear
70°F / 21°C 57°F / 14°C 64% 29.95 in
(1014 mb)
SSE 9.2 mph
(SSE 15 kph)
- 10SM
Time Weather Temperature Dewpoint Humidity Pressure Winds Precip Visibility


Weather for websites

WeatherForYou.com, LLC is not responsible for any damages or problems caused by this service. Current weather conditions are obtained from the closest station including government and personal stations which may have varying degrees of accuracy. Weather forecasts are derived from the NOAA NDFD. Like all things, this site belongs to Jesus Christ... He just trusts me to maintain it. If you have any questions or comments email webmaster@weatherforyou.com

Copyright © 2014, WeatherForYou.com LLC. All rights reserved.